Other Public Products
Issued by NWS Grand Forks, ND

Home | Current Version | Previous Version | Graphics & Text | Print | Product List | Glossary On
Versions: 1 2 3 4 5 6 7 8 9 10 11 12 13 14 15 16 17 18 19 20 21 22 23 24 25 26 27 28 29 30 31 32 33 34 35 36 37 38 39 40 41 42 43 44 45 46 47 48 49 50
000
FPUS83 KFGF 280710
OPUFGF
PRAIRIE TO PINES WEATHER ROUNDUP
NATIONAL WEATHER SERVICE EASTERN NORTH DAKOTA/GRAND FORKS ND
100 AM CST FRI NOV 28 2014

 **SATELLITE DATA USED TO AUGMENT SKY COVER AT AUTOMATED STATIONS**
 *****  WEATHER ACROSS EASTERN NORTH DAKOTA  *****

CITY           SKY/WX    TMP DP  RH WIND       PRES   REMARKS
GRAND FORKS    CLOUDY     9   5  84 SE10      30.08F WCI  -5
GRAND FORKS AF NOT AVBL
GRAND CITY NWS   N/A      9 N/A N/A SE12        N/A  WCI  -6
BUXTON         NOT AVBL
DEVILS LAKE    CLOUDY     9  -2  61 SE12      29.95F WCI  -6
FARGO          LGT SNOW  12   6  77 SE12      30.06F WCI  -2
WAHPETON ARPT  CLOUDY    10   5  79 SE16      30.06F WCI  -7
$$

 *****  WEATHER ACROSS CENTRAL AND WESTERN NORTH DAKOTA  *****

CITY           SKY/WX    TMP DP  RH WIND       PRES   REMARKS
JAMESTOWN      CLOUDY     7   3  84 SE13      29.95F WCI  -9
BISMARCK       PTCLDY     8   5  87 E10       29.87F WCI  -6
MINOT          CLOUDY     9   4  80 E14       29.87F WCI  -7
MINOT AFB      CLOUDY     9   6  88 SE15      29.87F WCI  -8
GARRISON         N/A     12   8  84 SE10      29.86R WCI  -1
WILLISTON      MOCLDY    16  12  84 E6        29.76F WCI   7
DICKINSON      PTCLDY    18  14  84 NE7       29.70F WCI   9
HETTINGER      CLEAR     25  21  85 CALM      29.73F
$$

 *****  OTHER OBSERVATIONS NORTHEAST NORTH DAKOTA  *****

CITY           SKY/WX    TMP DP  RH WIND       PRES   REMARKS
WALHALLA         N/A      5   1  85 SE8       30.07F WCI  -8
LANGDON        CLOUDY     7   1  78 SE13      29.97F WCI  -9
CAVALIER       PTSUNNY    7   3  85 SE7       30.07F WCI  -5
GRAFTON        CLOUDY     9   5  85 SE12      30.08F WCI  -6
CANDO          CLOUDY     9   5  85 SE9       29.99S WCI  -5
FORT TOTTEN      N/A      7   2  80 SE6       29.95  WCI  -3
ROLLA          CLOUDY     5   3  92 SE9       29.96S WCI  -9
RUGBY          CLOUDY     7   1  78 SE12      29.96R WCI  -9
 ***** THE ABOVE OBSERVATIONS ARE NON NWS ARE NOT QUALITY
        CONTROLLED AND MAY MIS-REPORT RAIN FOR SNOW...
$$

 *****  OTHER OBSERVATIONS SOUTHEAST NORTH DAKOTA *****

CITY           SKY/WX    TMP DP  RH WIND       PRES   REMARKS
COOPERSTOWN    NOT AVBL
VALLEY CITY    CLOUDY     7   5  92 SE14      29.98F WCI -10
OAKES            N/A      7   5  92 E16       29.96F WCI -11
GWINNER        CLOUDY    10   5  79 SE16      30.00F WCI  -7
SHEYENNE NWR     N/A      8   3  79 SE10      29.95  WCI  -6
BUFFALO        NOT AVBL
WYNDMERE         N/A      9   5  85 SE12        N/A  WCI  -6
 ***** THE ABOVE OBSERVATIONS ARE NON NWS ARE NOT QUALITY
       CONTROLLED AND MAY MIS-REPORT RAIN FOR SNOW...
$$

  *****  WEATHER ACROSS NORTHERN MINNESOTA  *****

CITY           SKY/WX    TMP DP  RH WIND       PRES   REMARKS
FLAG ISLAND    CLOUDY     5   0  78 SE7       30.11F WCI  -7
WARROAD        CLOUDY     7   0  72 SE3       30.12F
ROSEAU         CLOUDY     9   1  72 SE5       30.11F WCI   0
HALLOCK        CLOUDY     9   3  78 SE8       30.09F WCI  -4
THF RVR FALLS  CLOUDY     9   7  92 SE7       30.08F WCI  -3
HALSTAD          N/A     11   5  77 SE10        N/A  WCI  -3
FOSSTON        CLOUDY     7   3  85 SE6       30.06F WCI  -3
BAUDETTE       CLOUDY     5  -2  72 SE5       30.12F WCI  -4
WASKISH        CLOUDY     9   1  72 CALM      30.12F
CROOKSTON      CLOUDY    10   7  85 SE9       30.09F WCI  -2
$$
  *****  WEATHER ACROSS CENTRAL AND WEST MINNESOTA  *****

CITY           SKY/WX    TMP DP  RH WIND       PRES   REMARKS
BEMIDJI        MOCLDY     7   1  78 SE6       30.08F WCI  -4
PARK RAPIDS    CLOUDY     5   1  83 SE12      30.09F WCI -11
WADENA         LGT SNOW   5   1  85 SE9       30.08F WCI  -9
DETROIT LAKES  LGT SNOW   9   5  85 SE13      30.04F WCI  -7
MOORHEAD       LGT SNOW  12  10  92 S9        30.07  WCI   0
FERGUS FALLS   CLOUDY     9   3  78 SE13      30.09F WCI  -7
ELBOW LAKE     LGT SNOW   9   4  81 SE12G20   30.05F WCI  -6
MORRIS MN      CLOUDY     7   3  85 SE22      30.05F WCI -14
STAPLES        FLURRIES   5   1  85 SE6       30.11F WCI  -6
WHEATON        CLOUDY     7   1  78 SE18      30.07F WCI -12
$$
  *****  WEATHER ELSEWHERE ACROSS MINNESOTA  *****

CITY           SKY/WX    TMP DP  RH WIND       PRES   REMARKS
DULUTH         CLOUDY     7  -4  60 S5        30.18S WCI  -2
INTRNTL FALLS  CLOUDY     2  -5  72 E3        30.15F
ELY            CLOUDY     1  -4  78 CALM      30.17S
CLOQUET        CLOUDY     7  -2  66 S5        30.19S WCI  -2
BRAINERD       LGT SNOW   5   2  87 SE7       30.15F FOG     WCI  -7
HIBBING        CLOUDY     7  -4  60 S3        30.18S
ALEXANDRIA     CLOUDY     6   1  80 SE15      30.07F WCI -12
SAINT CLOUD    SNOW       7   2  80 SE6       30.18F VSB 1/2 WCI  -3
MINNEAPOLIS    LGT SNOW   7   3  84 SE8       30.24F FOG     WCI  -6
$$

  *****  WEATHER ACROSS SOUTH DAKOTA  *****

CITY           SKY/WX    TMP DP  RH WIND       PRES   REMARKS
SIOUX FALLS    MOCLDY    17  11  77 S13       29.96F WCI   4
BROOKINGS      NOT AVBL
WATERTOWN      PTCLDY    14   8  77 SE10      29.92F WCI   1
HURON          PTCLDY    19  13  77 SE10      29.89F WCI   7
SISSETON         N/A      7   4  87 S12       30.02F WCI  -8
ABERDEEN       PTCLDY    12   7  80 E5        29.94F WCI   4
MITCHELL       CLEAR     21  15  78 SE13      29.91F WCI   9
PIERRE         CLEAR     19  15  84 CALM      29.83F
MOBRIDGE       PTCLDY    12   8  84 E13       29.81F WCI  -3
RAPID CITY     MOCLDY    39  26  59 E3        29.80F
$$

  *****  SOME WEATHER IN NEARBY STATES *****

CITY           SKY/WX    TMP DP  RH WIND       PRES   REMARKS
GLASGOW MT     MOCLDY    23  20  88 E16       29.69S WCI  10
GREAT FALLS MT MOCLDY    46  35  65 W17       29.64F
CHEYENNE WY    PTCLDY    51  18  27 W26G36    30.01F
SCOTTSBLUFF NE CLEAR     33  25  72 E3        29.95F
OMAHA NE       CLEAR     26  19  74 SE17      30.09F WCI  13
DES MOINES IA  CLOUDY    15   7  70 SE12      30.22F WCI   2
DAVENPORT IA   CLOUDY    14   6  70 SE7       30.35F WCI   4
CHICAGO IL     MOCLDY    18  10  71 CALM      30.35F
EAU CLAIRE WI  LGT SNOW   8   2  76 SE5       30.28F WCI   0
LA CROSSE WI   CLOUDY    14   4  64 S7        30.33F WCI   4
$$

  *****  SOME NATIONAL WEATHER *****

CITY           SKY/WX    TMP DP  RH WIND       PRES   REMARKS
LA GUARDIA NY  CLEAR     33  24  69 NW15      30.07R WCI  23
RALEIGH NC     CLEAR     34  21  59 NW5       30.26R
ATLANTA GA     CLEAR     33  22  63 N12       30.36S WCI  24
NEW ORLEANS LA CLEAR     48  35  60 NE8       30.42F
OKLAHOMA CITY  MOCLDY    43  25  49 S14       30.21F
ALBUQUERQUE NM MOCLDY    41  21  44 CALM      30.32F
SALT LAKE CITY CLOUDY    48  26  42 SE13      30.10F
LOS ANGELES CA CLEAR     61  49  64 E3        30.01F
BOISE ID       CLOUDY    42  40  92 CALM      29.99S
SEATTLE WA     LGT RAIN  54  49  83 S13       29.71F
$$

*** WEATHER ACROSS MANITOBA...SASKATCHEWAN AND ONTARIO ***
                ***ONTARIO***

CITY           SKY/WX    TMP DP  RH WIND       PRES   REMARKS
GERALDTON      PTCLDY   -18 -26  69 SW2       30.17F
THUNDER BAY    MOCLDY    -2  -6  84 SW5       30.27F WCI -12
SIOUX LOOKOUT  PTCLDY    -4  -9  77 S3        30.13F
TORONTO        CLEAR     23  12  63 W15G21    30.17R WCI  10
BIG TROUT LK   FLURRIES  -6  -9  84 W8        30.07S WCI -21
PICKLE LAKE    NOT AVBL
DRYDEN         CLEAR     -4  -8  84 S7        30.11F WCI -18
KENORA         CLOUDY     0  -6  78 S9        30.10F WCI -16
$$
                *** MANITOBA***

CITY           SKY/WX    TMP DP  RH WIND       PRES   REMARKS
BRANDON        CLOUDY     9   5  85 E8        30.02F WCI  -4
DAUPHIN        FLURRIES   7   5  92 N13       30.11S WCI  -9
ISLAND LAKE    CLEAR     -8 -15  71 W6        30.12S WCI -21
PILOT MOUND      N/A      5   3  92 SE5         N/A  WCI  -4
THE PAS        CLEAR     -6 -11  77 N6        30.20S WCI -18
THOMPSON       CLEAR    -20 -26  76 SW3       30.18R
WINNIPEG       MOCLDY     3  -4  72 S7        30.13F WCI  -9
LYNN LAKE      CLEAR    -18 -22  83 W6        30.16S WCI -33
CHURCHILL      CRYSTALS -11 -18  70 NW21G28   30.04S BLWGSNOWWCI -37
GILLAM         CLEAR    -15 -22  70 NW10      30.11S WCI -35
$$
                ***SASKATCHEWAN***

CITY           SKY/WX    TMP DP  RH WIND       PRES   REMARKS
ESTEVAN        LGT SNOW   9   5  85 E18       29.84F DRFTSNOWWCI -10
KINDERSLEY     LGT SNOW   9   5  85 E28G33    29.72F VSB 5/8 WCI -13
LLOYDMINSTER   LGT SNOW   0  -6  78 E23G29    29.86F WCI -24
PRINCE ALBERT  FLURRIES   1  -4  78 E15       30.08S WCI -18
REGINA         FLURRIES  12   9  85 E10G17    29.86F WCI  -1



USA.gov is the U.S. government's official web portal to all federal, state and local government web resources and services.